Location: Newark
(34.4697°S, 57.8467°W)
Time: 23:15:28
(UTC+00:00)

N. Korean satellite - Pass Details

Date: 27 July 2019
Orbit: 457 x 507 km, 97.2° (Epoch: 21 August)

Event Time Altitude Azimuth Distance (km) Brightness Sun altitude
Rises 22:48:05 0° 193° (SSW) 2,517 10.2 -20.8°
Reaches altitude 10° 22:51:05 10° 222° (SW) 1,627 9.6 -21.4°
Maximum altitude 22:52:41 13° 249° (WSW) 1,456 9.8 -21.7°
Drops below altitude 10° 22:54:17 10° 277° (W) 1,616 10.4 -22.0°
Sets 22:57:15 0° 306° (NW) 2,482 11.2 -22.6°
